Chrm Bsp Pass 58220 Schedule, Route, Map - Chirmiri to Bilaspur train
Must See India - Best Travel Guide to India
Home   |   Login   |   Register   |   Contact Us
 

Chrm Bsp Pass (58220)

Print
     

Service Days:

All Days

Classes:

First Class (FC), Sleeper (SL)

Duration:

10h 25m

Station Arrival Departure Stop Time Distance Day
1 Chirmiri (CHRM) starts 08:05 pm Starts 0 km 1
2 Paradol (PRDL) 08:26 pm 08:27 pm 1 min 12 km 1
3 Manendragarh (MDGR) 08:55 pm 09:20 pm 25 min 23 km 1
4 Boridand (BRND) 09:36 pm 09:37 pm 1 min 30 km 1
5 Bijuri (BJRI) 09:55 pm 10:20 pm 25 min 40 km 1
6 Baihatola (BATL) 10:26 pm 10:27 pm 1 min 46 km 1
7 Kotma (KTMA) 10:36 pm 10:37 pm 1 min 56 km 1
8 Harrad (HRV) 10:47 pm 10:48 pm 1 min 64 km 1
9 Dhurwasin (DRSN) 10:54 pm 10:55 pm 1 min 71 km 1
10 Mauhari (MZH) 11:02 pm 11:03 pm 1 min 79 km 1
11 Anuppur Jn (APR) 11:25 pm 11:50 pm 25 min 87 km 1
12 Chhulha (CLF) 11:55 pm 11:56 pm 1 min 92 km 1
13 Jaithari (JTI) 12:04 am 12:05 am 1 min 100 km 2
14 Nigaura (NIQ) 12:14 am 12:15 am 1 min 111 km 2
15 Venkatnagra (VKR) 12:29 am 12:30 am 1 min 118 km 2
16 Harri (HRB) 12:49 am 12:50 am 1 min 129 km 2
17 Pendra Road (PND) 01:20 am 01:30 am 10 min 137 km 2
18 Sarbahara (SBRA) 01:39 am 01:40 am 1 min 142 km 2
19 Khodri (KOI) 01:59 am 02:00 am 1 min 148 km 2
20 Bhanwar Tonk (BHTK) 02:19 am 02:20 am 1 min 159 km 2
21 Khongsara (KGS) 02:44 am 02:45 am 1 min 172 km 2
22 Tenganmada (TGQ) 02:59 am 03:00 am 1 min 180 km 2
23 Belgahna (BIG) 03:19 am 03:20 am 1 min 190 km 2
24 Salkaroad (SLKR) 03:29 am 03:30 am 1 min 198 km 2
25 Kargi Road (KGB) 03:44 am 03:45 am 1 min 206 km 2
26 Kalmitar (KLTR) 03:59 am 04:00 am 1 min 214 km 2
27 Ghutku (GTK) 05:19 am 05:20 am 1 min 222 km 2
28 Usalapur (USL) 06:05 am 06:10 am 5 min 229 km 2
29 Bilaspur (BSP) 06:30 am ends Ends 238 km 2
Slip Route
30 Anuppur Jn (APR) 11:25 pm 11:50 pm 25 min 87 km 1
31 Amlai (AAL) 12:55 am 12:56 am 1 min 99 km 2
32 Burhar (BUH) 01:07 am 01:08 am 1 min 108 km 2
33 Singhpur (SNGP) 01:23 am 01:24 am 1 min 122 km 2
34 Shahdol (SDL) 02:20 am 02:30 am 10 min 128 km 2
35 Badhwa Bara (BDWA) 02:42 am 02:43 am 1 min 136 km 2
36 Ghunghuti (GGT) 02:56 am 02:57 am 1 min 149 km 2
37 Birsinghpur (BRS) 03:17 am 03:18 am 1 min 165 km 2
38 Nowrozabad (NRZB) 03:26 am 03:27 am 1 min 172 km 2
39 Karkeli (KKI) 03:37 am 03:38 am 1 min 182 km 2
40 Umaria (UMR) 03:55 am 04:00 am 5 min 195 km 2
41 Lorha (LOA) 04:08 am 04:09 am 1 min 205 km 2
42 Chandia Road (CHD) 04:24 am 04:25 am 1 min 214 km 2
43 Vilayatkalan Rd (VYK) 04:34 am 04:35 am 1 min 223 km 2
44 Rupaund (RPD) 04:44 am 04:45 am 1 min 231 km 2
45 Jhalwara (JLW) 05:29 am 05:30 am 1 min 243 km 2
46 Katni Murwara (KMZ) 06:35 am 06:55 am 20 min 253 km 2
47 Hardua (HDU) 07:08 am 07:09 am 1 min 268 km 2
48 Rithi (REI) 07:22 am 07:23 am 1 min 283 km 2
49 Bakhleta (BQQ) 07:34 am 07:36 am 2 min 290 km 2
50 Salaia (SYA) 07:45 am 07:47 am 2 min 302 km 2
51 Sagoni (SAO) 08:08 am 08:10 am 2 min 320 km 2
52 Ghatera (GEA) 08:33 am 08:35 am 2 min 336 km 2
53 Bandakpur (BNU) 08:48 am 08:50 am 2 min 347 km 2
54 Karhiya Bhadeli (KYX) 09:04 am 09:05 am 1 min 354 km 2
55 Damoh (DMO) 09:40 am 09:50 am 10 min 362 km 2
56 Aslana (ANA) 10:04 am 10:05 am 1 min 375 km 2
57 Patharia (PHA) 10:15 am 10:20 am 5 min 389 km 2
58 Ganeshganj (GAJ) 10:30 am 10:35 am 5 min 402 km 2
59 Girwar (GW) 10:59 am 11:00 am 1 min 416 km 2
60 Lidhora Khurd (LDA) 11:14 am 11:15 am 1 min 426 km 2
61 Makronia (MKRN) 11:29 am 11:30 am 1 min 433 km 2
62 Saugor (SGO) 12:00 pm 12:10 pm 10 min 440 km 2
63 Nariaoli (NOI) 12:34 pm 12:35 pm 1 min 458 km 2
64 Isarwara (ISH) 12:44 pm 12:45 pm 1 min 466 km 2
65 Jeruwa Khera (JRK) 12:59 pm 01:00 pm 1 min 475 km 2
66 Sumreri (SMRR) 01:14 pm 01:15 pm 1 min 484 km 2
67 Khurai (KYE) 01:28 pm 01:30 pm 2 min 493 km 2
68 Baghora (BJQ) 01:49 pm 01:50 pm 1 min 504 km 2
69 Bina Jn (BINA) 02:25 pm 02:35 pm 10 min 514 km 2
70 Mandi Bamora (MABA) 02:54 pm 02:55 pm 1 min 532 km 2
71 Kalhar (KAH) 03:06 pm 03:07 pm 1 min 541 km 2
72 Ganj Basoda (BAQ) 03:36 pm 03:37 pm 1 min 560 km 2
73 Gulabhganj (GLG) 03:56 pm 03:57 pm 1 min 578 km 2
74 Vidisha (BHS) 04:14 pm 04:15 pm 1 min 600 km 2
75 Sanchi (SCI) 04:29 pm 04:30 pm 1 min 609 km 2
76 Salamatpur (SMT) 04:39 pm 04:40 pm 1 min 616 km 2
77 Dewanganj (DWG) 04:54 pm 04:55 pm 1 min 625 km 2
78 Bhopal (BPL) 06:15 pm ends Ends 653 km 2

 

 Click to view map

You can drag the map with your mouse, and double-click to zoom.

People who viewed this page also viewed

 
Chikmagalur packages from Hyderabad
 
Chikmagalur resorts bookings
 
Dadra honeymoon packages from Kolkata
 
Dandeli packages from Chennai
 
Kargil packages from Pune
 
Katra honeymoon packages from Mumbai
 
Pangong packages from Kolkata
 
Pondicherry tour packages from Mumbai
 
Srinagar honeymoon packages from Chennai
 
honeymoon destinations in delhi
 
honeymoon packages to jammu and kashmir from chennai
 
manali shimla tour package
 

Destinations

 
 

More

 
debug_temp: train_route : train:2327:Chrm Bsp Pass:Train